| time (UTC) | temp F | wind direction | speed MPH | gust MPH | rain 1hr in | rain 24hr in | rain mn in | humidity % | barometer mb |
| 20260505204532 | 60 | 252 | 8.0 | 28.0 | 0.00 | 0.00 | 0.00 | 19 | 1009.0 |
| 20260505204013 | 60 | 232 | 15.0 | 28.0 | 0.00 | 0.00 | 0.00 | 19 | 1009.2 |
| 20260505203512 | 60 | 235 | 15.0 | 24.0 | 0.00 | 0.00 | 0.00 | 17 | 1009.1 |
| 20260505203031 | 60 | 194 | 15.0 | 25.0 | 0.00 | 0.00 | 0.00 | 18 | 1009.2 |
| 20260505202513 | 60 | 256 | 16.0 | 25.0 | 0.00 | 0.00 | 0.00 | 18 | 1009.3 |
| 20260505202017 | 61 | 264 | 17.0 | 24.0 | 0.00 | 0.00 | 0.00 | 18 | 1009.3 |
| 20260505201530 | 60 | 233 | 16.0 | 23.0 | 0.00 | 0.00 | 0.00 | 19 | 1009.3 |
| 20260505201015 | 60 | 253 | 16.0 | 25.0 | 0.00 | 0.00 | 0.00 | 16 | 1009.3 |
| 20260505200514 | 59 | 224 | 12.0 | 25.0 | 0.00 | 0.00 | 0.00 | 19 | 1009.3 |
| 20260505200030 | 58 | 185 | 12.0 | 23.0 | 0.00 | 0.00 | 0.00 | 19 | 1009.5 |
| 20260505195513 | 58 | 221 | 15.0 | 23.0 | 0.00 | 0.00 | 0.00 | 18 | 1009.6 |
| 20260505195015 | 57 | 214 | 15.0 | 21.0 | 0.00 | 0.00 | 0.00 | 20 | 1009.6 |
| 20260505194532 | 58 | 239 | 12.0 | 21.0 | 0.00 | 0.00 | 0.00 | 21 | 1009.5 |
| 20260505194015 | 58 | 224 | 13.0 | 26.0 | 0.00 | 0.00 | 0.00 | 21 | 1009.4 |
| 20260505193512 | 57 | 252 | 16.0 | 26.0 | 0.00 | 0.00 | 0.00 | 21 | 1009.4 |
| 20260505193032 | 58 | 204 | 15.0 | 23.0 | 0.00 | 0.00 | 0.00 | 21 | 1009.4 |
| 20260505192519 | 58 | 189 | 15.0 | 29.0 | 0.00 | 0.00 | 0.00 | 20 | 1009.3 |
| 20260505192016 | 58 | 260 | 13.0 | 29.0 | 0.00 | 0.00 | 0.00 | 22 | 1009.3 |
| 20260505191534 | 58 | 237 | 18.0 | 29.0 | 0.00 | 0.00 | 0.00 | 22 | 1009.3 |
| 20260505191015 | 59 | 265 | 10.0 | 22.0 | 0.00 | 0.00 | 0.00 | 20 | 1009.3 |
| 20260505190515 | 58 | 221 | 16.0 | 22.0 | 0.00 | 0.00 | 0.00 | 22 | 1009.4 |
| 20260505190031 | 59 | 243 | 14.0 | 20.0 | 0.00 | 0.00 | 0.00 | 23 | 1009.3 |
| 20260505185513 | 59 | 248 | 12.0 | 19.0 | 0.00 | 0.00 | 0.00 | 22 | 1009.4 |
| 20260505185013 | 59 | 229 | 13.0 | 19.0 | 0.00 | 0.00 | 0.00 | 22 | 1009.4 |
| 20260505184532 | 58 | 216 | 12.0 | 20.0 | 0.00 | 0.00 | 0.00 | 23 | 1009.4 |
| 20260505184013 | 58 | 241 | 14.0 | 20.0 | 0.00 | 0.00 | 0.00 | 23 | 1009.6 |
| 20260505183515 | 58 | 230 | 11.0 | 20.0 | 0.00 | 0.00 | 0.00 | 23 | 1009.5 |
| 20260505183036 | 58 | 244 | 12.0 | 23.0 | 0.00 | 0.00 | 0.00 | 24 | 1009.4 |
| 20260505182512 | 57 | 265 | 14.0 | 23.0 | 0.00 | 0.00 | 0.00 | 23 | 1009.5 |
| 20260505182017 | 57 | 264 | 10.0 | 25.0 | 0.00 | 0.00 | 0.00 | 24 | 1009.4 |
| 20260505181531 | 58 | 238 | 13.0 | 25.0 | 0.00 | 0.00 | 0.00 | 23 | 1009.6 |
| 20260505181013 | 58 | 257 | 16.0 | 25.0 | 0.00 | 0.00 | 0.00 | 22 | 1009.5 |
| 20260505180513 | 58 | 236 | 13.0 | 23.0 | 0.00 | 0.00 | 0.00 | 21 | 1009.6 |
| 20260505180044 | 58 | 226 | 15.0 | 29.0 | 0.00 | 0.00 | 0.00 | 21 | 1009.8 |
| 20260505175511 | 58 | 242 | 14.0 | 29.0 | 0.00 | 0.00 | 0.00 | 22 | 1009.8 |
| 20260505175011 | 57 | 264 | 12.0 | 22.0 | 0.00 | 0.00 | 0.00 | 25 | 1009.9 |
| 20260505174538 | 58 | 255 | 15.0 | 22.0 | 0.00 | 0.00 | 0.00 | 25 | 1009.9 |
| 20260505174014 | 57 | 232 | 9.0 | 23.0 | 0.00 | 0.00 | 0.00 | 27 | 1009.9 |
| 20260505173512 | 57 | 205 | 12.0 | 23.0 | 0.00 | 0.00 | 0.00 | 25 | 1010.0 |
| 20260505173032 | 57 | 231 | 14.0 | 22.0 | 0.00 | 0.00 | 0.00 | 26 | 1009.9 |
| 20260505172515 | 58 | 233 | 13.0 | 22.0 | 0.00 | 0.00 | 0.00 | 28 | 1010.0 |
| 20260505172017 | 58 | 214 | 15.0 | 23.0 | 0.00 | 0.00 | 0.00 | 26 | 1010.1 |
| 20260505171533 | 57 | 257 | 14.0 | 23.0 | 0.00 | 0.00 | 0.00 | 28 | 1010.0 |
| 20260505171016 | 57 | 208 | 12.0 | 23.0 | 0.00 | 0.00 | 0.00 | 27 | 1010.0 |
| 20260505170512 | 57 | 240 | 10.0 | 21.0 | 0.00 | 0.00 | 0.00 | 27 | 1010.1 |
| 20260505170030 | 56 | 212 | 14.0 | 21.0 | 0.00 | 0.00 | 0.00 | 26 | 1010.0 |
| 20260505165510 | 56 | 249 | 11.0 | 19.0 | 0.00 | 0.00 | 0.00 | 29 | 1010.0 |
| 20260505165014 | 56 | 238 | 6.0 | 20.0 | 0.00 | 0.00 | 0.00 | 28 | 1010.0 |
| 20260505164535 | 56 | 266 | 13.0 | 20.0 | 0.00 | 0.00 | 0.00 | 29 | 1010.1 |
| 20260505164017 | 55 | 232 | 8.0 | 17.0 | 0.00 | 0.00 | 0.00 | 31 | 1010.1 |
| 20260505163518 | 55 | 257 | 11.0 | 17.0 | 0.00 | 0.00 | 0.00 | 32 | 1010.2 |
| 20260505163034 | 55 | 231 | 9.0 | 17.0 | 0.00 | 0.00 | 0.00 | 33 | 1010.3 |
| 20260505162513 | 55 | 224 | 8.0 | 18.0 | 0.00 | 0.00 | 0.00 | 33 | 1010.3 |
| 20260505162016 | 54 | 242 | 6.0 | 18.0 | 0.00 | 0.00 | 0.00 | 32 | 1010.2 |
| 20260505161530 | 54 | 227 | 10.0 | 15.0 | 0.00 | 0.00 | 0.00 | 33 | 1010.2 |
| 20260505161013 | 54 | 220 | 11.0 | 17.0 | 0.00 | 0.00 | 0.00 | 32 | 1010.3 |
| 20260505160514 | 54 | 250 | 9.0 | 17.0 | 0.00 | 0.00 | 0.00 | 33 | 1010.3 |
| 20260505153033 | 53 | 215 | 11.0 | 16.0 | 0.00 | 0.00 | 0.00 | 31 | 1010.4 |
| 20260505152518 | 53 | 213 | 10.0 | 19.0 | 0.00 | 0.00 | 0.00 | 32 | 1010.6 |
| 20260505152014 | 52 | 215 | 10.0 | 19.0 | 0.00 | 0.00 | 0.00 | 32 | 1010.8 |
| 20260505151531 | 52 | 214 | 12.0 | 18.0 | 0.00 | 0.00 | 0.00 | 32 | 1010.9 |
| 20260505151013 | 52 | 263 | 11.0 | 18.0 | 0.00 | 0.00 | 0.00 | 33 | 1011.0 |
| 20260505150514 | 52 | 238 | 12.0 | 17.0 | 0.00 | 0.00 | 0.00 | 33 | 1011.1 |
| 20260505140514 | 50 | 162 | 9.0 | 15.0 | 0.00 | 0.00 | 0.00 | 35 | 1011.8 |
| 20260505125013 | 46 | 207 | 8.0 | 13.0 | 0.00 | 0.00 | 0.00 | 38 | 1011.7 |
| 20260505124532 | 45 | 182 | 6.0 | 11.0 | 0.00 | 0.00 | 0.00 | 39 | 1011.7 |
| 20260505124013 | 45 | 167 | 5.0 | 10.0 | 0.00 | 0.00 | 0.00 | 39 | 1011.7 |
| 20260505123513 | 44 | 147 | 5.0 | 11.0 | 0.00 | 0.00 | 0.00 | 39 | 1011.7 |
| 20260505123035 | 44 | 186 | 6.0 | 11.0 | 0.00 | 0.00 | 0.00 | 39 | 1011.7 |
| 20260505122513 | 44 | 174 | 1.0 | 8.0 | 0.00 | 0.00 | 0.00 | 39 | 1011.7 |
| 20260505122011 | 45 | 189 | 2.0 | 8.0 | 0.00 | 0.00 | 0.00 | 38 | 1011.7 |
| 20260505121531 | 45 | 187 | 5.0 | 8.0 | 0.00 | 0.00 | 0.00 | 38 | 1011.7 |
| 20260505121010 | 45 | 167 | 4.0 | 7.0 | 0.00 | 0.00 | 0.00 | 38 | 1011.7 |
| 20260505120514 | 45 | 153 | 3.0 | 8.0 | 0.00 | 0.00 | 0.00 | 37 | 1011.8 |
| 20260505120031 | 45 | 153 | 4.0 | 8.0 | 0.00 | 0.00 | 0.00 | 37 | 1011.8 |
| 20260505115513 | 45 | 153 | 3.0 | 7.0 | 0.00 | 0.00 | 0.00 | 37 | 1011.7 |
| 20260505115010 | 45 | 189 | 4.0 | 7.0 | 0.00 | 0.00 | 0.00 | 37 | 1011.7 |
| 20260505114530 | 46 | 156 | 4.0 | 7.0 | 0.00 | 0.00 | 0.00 | 37 | 1011.6 |
| 20260505114011 | 46 | 165 | 1.0 | 4.0 | 0.00 | 0.00 | 0.00 | 36 | 1011.6 |
| 20260505113517 | 46 | 0 | 1.0 | 4.0 | 0.00 | 0.00 | 0.00 | 36 | 1011.5 |
| 20260505113034 | 47 | 0 | 0.0 | 5.0 | 0.00 | 0.00 | 0.00 | 36 | 1011.4 |
| 20260505112514 | 47 | 192 | 1.0 | 8.0 | 0.00 | 0.00 | 0.00 | 35 | 1011.3 |
| 20260505112013 | 47 | 178 | 3.0 | 8.0 | 0.00 | 0.00 | 0.00 | 35 | 1011.4 |
| 20260505111532 | 48 | 176 | 1.0 | 8.0 | 0.00 | 0.00 | 0.00 | 35 | 1011.3 |
| 20260505111014 | 48 | 164 | 0.0 | 7.0 | 0.00 | 0.00 | 0.00 | 34 | 1011.3 |
| 20260505110514 | 48 | 162 | 4.0 | 8.0 | 0.00 | 0.00 | 0.00 | 34 | 1011.3 |
| 20260505102015 | 49 | 191 | 10.0 | 15.0 | 0.00 | 0.00 | 0.00 | 32 | 1011.2 |
| 20260505101548 | 50 | 183 | 10.0 | 15.0 | 0.00 | 0.00 | 0.00 | 31 | 1011.1 |
| 20260505101013 | 50 | 212 | 10.0 | 15.0 | 0.00 | 0.00 | 0.00 | 31 | 1011.1 |
| 20260505100512 | 50 | 204 | 9.0 | 18.0 | 0.00 | 0.00 | 0.00 | 31 | 1011.1 |
| 20260505100054 | 50 | 200 | 10.0 | 18.0 | 0.00 | 0.00 | 0.00 | 31 | 1011.1 |
| 20260505095513 | 50 | 207 | 8.0 | 13.0 | 0.00 | 0.04 | 0.00 | 31 | 1011.0 |
| 20260505095013 | 50 | 176 | 8.0 | 14.0 | 0.00 | 0.04 | 0.00 | 32 | 1011.1 |
| 20260505094532 | 50 | 180 | 11.0 | 14.0 | 0.00 | 0.04 | 0.00 | 31 | 1010.9 |
| 20260505094010 | 50 | 169 | 8.0 | 14.0 | 0.00 | 0.04 | 0.00 | 31 | 1010.8 |
| 20260505093512 | 50 | 195 | 8.0 | 15.0 | 0.00 | 0.04 | 0.00 | 32 | 1010.8 |
| 20260505093031 | 50 | 200 | 8.0 | 15.0 | 0.00 | 0.04 | 0.00 | 32 | 1010.8 |
| 20260505092529 | 50 | 166 | 7.0 | 15.0 | 0.00 | 0.04 | 0.00 | 32 | 1010.8 |
| 20260505092015 | 50 | 175 | 8.0 | 14.0 | 0.00 | 0.04 | 0.00 | 32 | 1010.8 |
| 20260505091530 | 50 | 213 | 8.0 | 13.0 | 0.00 | 0.04 | 0.00 | 32 | 1010.8 |
| 20260505091013 | 50 | 168 | 7.0 | 13.0 | 0.00 | 0.04 | 0.00 | 32 | 1010.7 |
| 20260505090514 | 50 | 167 | 8.0 | 15.0 | 0.00 | 0.04 | 0.00 | 31 | 1010.7 |
| 20260505090030 | 50 | 195 | 10.0 | 20.0 | 0.00 | 0.04 | 0.00 | 31 | 1010.7 |
| 20260505085517 | 51 | 197 | 13.0 | 20.0 | 0.00 | 0.04 | 0.00 | 31 | 1010.7 |
| 20260505085014 | 50 | 189 | 8.0 | 13.0 | 0.00 | 0.04 | 0.00 | 33 | 1010.9 |
| 20260505084532 | 50 | 172 | 7.0 | 11.0 | 0.00 | 0.04 | 0.00 | 34 | 1010.9 |
| 20260505084016 | 50 | 169 | 6.0 | 13.0 | 0.00 | 0.04 | 0.00 | 34 | 1010.8 |
| 20260505083515 | 51 | 198 | 7.0 | 18.0 | 0.00 | 0.04 | 0.00 | 34 | 1010.9 |
| 20260505083035 | 51 | 191 | 9.0 | 18.0 | 0.00 | 0.04 | 0.00 | 34 | 1010.9 |
| 20260505082515 | 51 | 203 | 9.0 | 16.0 | 0.00 | 0.04 | 0.00 | 34 | 1010.9 |
| 20260505082014 | 51 | 189 | 7.0 | 14.0 | 0.00 | 0.04 | 0.00 | 35 | 1011.0 |
| 20260505081532 | 51 | 202 | 7.0 | 15.0 | 0.00 | 0.04 | 0.00 | 35 | 1011.1 |
| 20260505081013 | 51 | 153 | 6.0 | 15.0 | 0.00 | 0.04 | 0.00 | 35 | 1011.1 |
| 20260505080512 | 51 | 157 | 6.0 | 13.0 | 0.00 | 0.04 | 0.00 | 35 | 1011.1 |
| 20260505080035 | 51 | 174 | 5.0 | 11.0 | 0.00 | 0.04 | 0.00 | 35 | 1011.1 |
| 20260505075512 | 51 | 160 | 3.0 | 11.0 | 0.00 | 0.04 | 0.00 | 36 | 1011.2 |
| 20260505075012 | 50 | 167 | 5.0 | 11.0 | 0.00 | 0.04 | 0.00 | 36 | 1011.3 |
| 20260505074532 | 51 | 115 | 2.0 | 9.0 | 0.00 | 0.04 | 0.00 | 36 | 1011.2 |
| 20260505074013 | 52 | 133 | 5.0 | 10.0 | 0.00 | 0.04 | 0.00 | 34 | 1011.3 |
| 20260505073512 | 52 | 176 | 6.0 | 12.0 | 0.00 | 0.04 | 0.00 | 34 | 1011.4 |
| 20260505073038 | 52 | 182 | 6.0 | 12.0 | 0.00 | 0.04 | 0.00 | 33 | 1011.6 |
| 20260505072513 | 52 | 174 | 6.0 | 13.0 | 0.00 | 0.04 | 0.00 | 33 | 1011.5 |
| 20260505072013 | 52 | 183 | 8.0 | 13.0 | 0.00 | 0.04 | 0.00 | 34 | 1011.7 |
| 20260505071533 | 52 | 200 | 8.0 | 19.0 | 0.00 | 0.04 | 0.00 | 33 | 1011.5 |
| 20260505071014 | 52 | 219 | 9.0 | 19.0 | 0.00 | 0.04 | 0.00 | 33 | 1011.4 |
| 20260505070515 | 52 | 190 | 10.0 | 15.0 | 0.00 | 0.04 | 0.00 | 34 | 1011.6 |
| 20260505070032 | 52 | 167 | 8.0 | 14.0 | 0.00 | 0.04 | 0.00 | 35 | 1011.6 |
| 20260505065513 | 51 | 221 | 9.0 | 12.0 | 0.00 | 0.04 | 0.00 | 36 | 1011.7 |
| 20260505065015 | 49 | 212 | 6.0 | 11.0 | 0.00 | 0.04 | 0.00 | 39 | 1011.7 |
| 20260505064531 | 48 | 148 | 3.0 | 7.0 | 0.00 | 0.04 | 0.00 | 41 | 1011.7 |
| 20260505064013 | 48 | 146 | 1.0 | 2.0 | 0.00 | 0.04 | 0.00 | 41 | 1011.6 |
| 20260505063513 | 48 | 116 | 1.0 | 4.0 | 0.00 | 0.04 | 0.00 | 42 | 1011.6 |
| 20260505063042 | 48 | 107 | 1.0 | 4.0 | 0.00 | 0.04 | 0.00 | 41 | 1011.7 |
| 20260505062513 | 48 | 132 | 1.0 | 4.0 | 0.00 | 0.04 | 0.00 | 40 | 1011.5 |
| 20260505062017 | 48 | 99 | 1.0 | 2.0 | 0.00 | 0.04 | 0.00 | 41 | 1011.6 |
| 20260505061537 | 48 | 100 | 0.0 | 3.0 | 0.00 | 0.04 | 0.00 | 40 | 1011.4 |
| 20260505061013 | 48 | 117 | 1.0 | 5.0 | 0.00 | 0.04 | 0.00 | 40 | 1011.5 |
| 20260505060514 | 49 | 120 | 2.0 | 5.0 | 0.00 | 0.04 | 0.00 | 40 | 1011.4 |
| 20260505060035 | 49 | 125 | 2.0 | 6.0 | 0.00 | 0.04 | 0.00 | 40 | 1011.3 |
| 20260505055515 | 49 | 128 | 4.0 | 6.0 | 0.00 | 0.04 | 0.04 | 40 | 1011.3 |
| 20260505055018 | 49 | 132 | 3.0 | 6.0 | 0.00 | 0.04 | 0.04 | 40 | 1011.3 |
| 20260505054530 | 48 | 134 | 3.0 | 6.0 | 0.00 | 0.04 | 0.04 | 40 | 1011.4 |
| 20260505054014 | 48 | 154 | 4.0 | 6.0 | 0.00 | 0.04 | 0.04 | 40 | 1011.5 |
| 20260505053514 | 48 | 133 | 3.0 | 5.0 | 0.00 | 0.04 | 0.04 | 40 | 1011.5 |
| 20260505053040 | 48 | 139 | 3.0 | 6.0 | 0.00 | 0.04 | 0.04 | 40 | 1011.4 |
| 20260505052515 | 48 | 122 | 3.0 | 6.0 | 0.00 | 0.04 | 0.04 | 40 | 1011.4 |
| 20260505052015 | 48 | 133 | 4.0 | 6.0 | 0.00 | 0.04 | 0.04 | 41 | 1011.5 |
| 20260505051539 | 47 | 124 | 4.0 | 6.0 | 0.00 | 0.04 | 0.04 | 42 | 1011.5 |
| 20260505051014 | 47 | 137 | 3.0 | 5.0 | 0.00 | 0.04 | 0.04 | 44 | 1011.6 |
| 20260505050517 | 46 | 142 | 3.0 | 4.0 | 0.00 | 0.04 | 0.04 | 46 | 1011.5 |
| 20260505041534 | 44 | 88 | 3.0 | 5.0 | 0.00 | 0.04 | 0.04 | 52 | 1011.8 |
| 20260505041018 | 45 | 86 | 4.0 | 6.0 | 0.00 | 0.04 | 0.04 | 51 | 1011.7 |
| 20260505040515 | 45 | 82 | 4.0 | 6.0 | 0.00 | 0.04 | 0.04 | 51 | 1011.8 |
| 20260505040034 | 45 | 72 | 3.0 | 5.0 | 0.00 | 0.04 | 0.04 | 51 | 1011.9 |
| 20260505035517 | 45 | 87 | 4.0 | 5.0 | 0.00 | 0.04 | 0.04 | 51 | 1011.8 |
| 20260505035013 | 45 | 82 | 3.0 | 5.0 | 0.00 | 0.04 | 0.04 | 50 | 1011.8 |
| 20260505034533 | 45 | 84 | 3.0 | 5.0 | 0.00 | 0.04 | 0.04 | 49 | 1011.9 |
| 20260505034015 | 46 | 89 | 3.0 | 5.0 | 0.00 | 0.04 | 0.04 | 49 | 1011.9 |
| 20260505033513 | 46 | 65 | 3.0 | 6.0 | 0.00 | 0.04 | 0.04 | 48 | 1011.9 |
| 20260505033032 | 47 | 79 | 3.0 | 7.0 | 0.00 | 0.04 | 0.04 | 46 | 1011.9 |
| 20260505032514 | 47 | 77 | 4.0 | 7.0 | 0.00 | 0.04 | 0.04 | 44 | 1011.7 |
| 20260505032014 | 48 | 70 | 4.0 | 7.0 | 0.00 | 0.04 | 0.04 | 44 | 1011.7 |
| 20260505031538 | 49 | 72 | 3.0 | 4.0 | 0.00 | 0.04 | 0.04 | 42 | 1011.5 |
| 20260505031020 | 50 | 70 | 1.0 | 3.0 | 0.00 | 0.04 | 0.04 | 39 | 1011.3 |
| 20260505030515 | 52 | 0 | 0.0 | 2.0 | 0.00 | 0.04 | 0.04 | 34 | 1011.4 |
| 20260505030035 | 52 | 131 | 0.0 | 2.0 | 0.00 | 0.04 | 0.04 | 34 | 1011.5 |
| 20260505025514 | 53 | 96 | 0.0 | 2.0 | 0.00 | 0.04 | 0.04 | 33 | 1011.4 |
| 20260505025014 | 53 | 135 | 0.0 | 2.0 | 0.00 | 0.04 | 0.04 | 32 | 1011.3 |
| 20260505024531 | 53 | 120 | 1.0 | 1.0 | 0.00 | 0.04 | 0.04 | 31 | 1011.1 |
| 20260505024013 | 53 | 96 | 0.0 | 2.0 | 0.00 | 0.04 | 0.04 | 32 | 1011.2 |
| 20260505023513 | 53 | 0 | 0.0 | 2.0 | 0.00 | 0.04 | 0.04 | 31 | 1011.0 |
| 20260505023033 | 54 | 89 | 1.0 | 4.0 | 0.00 | 0.04 | 0.04 | 30 | 1011.1 |
| 20260505022514 | 55 | 150 | 0.0 | 5.0 | 0.00 | 0.04 | 0.04 | 29 | 1011.0 |
| 20260505022016 | 55 | 203 | 2.0 | 6.0 | 0.00 | 0.04 | 0.04 | 28 | 1011.1 |
| 20260505021535 | 55 | 215 | 3.0 | 6.0 | 0.00 | 0.04 | 0.04 | 28 | 1011.1 |
| 20260505021016 | 55 | 215 | 4.0 | 6.0 | 0.00 | 0.04 | 0.04 | 28 | 1011.0 |
| 20260505020515 | 55 | 221 | 3.0 | 7.0 | 0.00 | 0.04 | 0.04 | 28 | 1010.8 |
| 20260505020036 | 56 | 217 | 3.0 | 7.0 | 0.00 | 0.04 | 0.04 | 28 | 1010.9 |
| 20260505015515 | 56 | 224 | 3.0 | 7.0 | 0.00 | 0.04 | 0.04 | 28 | 1010.8 |
| 20260505015016 | 56 | 250 | 3.0 | 7.0 | 0.00 | 0.04 | 0.04 | 28 | 1011.0 |
| 20260505014535 | 56 | 216 | 3.0 | 7.0 | 0.00 | 0.04 | 0.04 | 28 | 1010.9 |
| 20260505014013 | 56 | 224 | 3.0 | 11.0 | 0.00 | 0.04 | 0.04 | 28 | 1010.9 |
| 20260505013513 | 57 | 245 | 4.0 | 11.0 | 0.00 | 0.04 | 0.04 | 28 | 1010.8 |
| 20260505013032 | 57 | 224 | 5.0 | 9.0 | 0.00 | 0.04 | 0.04 | 28 | 1010.8 |
| 20260505012513 | 57 | 226 | 5.0 | 9.0 | 0.00 | 0.04 | 0.04 | 28 | 1011.0 |
| 20260505012014 | 57 | 245 | 6.0 | 13.0 | 0.00 | 0.04 | 0.04 | 28 | 1011.0 |
| 20260505011536 | 58 | 219 | 8.0 | 13.0 | 0.00 | 0.04 | 0.04 | 28 | 1010.9 |
| 20260505011014 | 58 | 231 | 7.0 | 13.0 | 0.00 | 0.04 | 0.04 | 28 | 1010.9 |
| 20260505010514 | 58 | 236 | 10.0 | 15.0 | 0.00 | 0.04 | 0.04 | 28 | 1011.0 |
| 20260505010055 | 58 | 212 | 11.0 | 15.0 | 0.00 | 0.04 | 0.04 | 28 | 1011.0 |
| 20260505005513 | 58 | 220 | 10.0 | 14.0 | 0.00 | 0.04 | 0.04 | 27 | 1011.0 |
| 20260505005014 | 59 | 211 | 6.0 | 15.0 | 0.00 | 0.04 | 0.04 | 28 | 1011.1 |
| 20260505004530 | 59 | 235 | 10.0 | 15.0 | 0.00 | 0.04 | 0.04 | 28 | 1011.1 |
| 20260505004013 | 59 | 248 | 10.0 | 15.0 | 0.00 | 0.04 | 0.04 | 28 | 1011.3 |
| 20260505003515 | 59 | 234 | 10.0 | 13.0 | 0.00 | 0.04 | 0.04 | 28 | 1011.2 |
| 20260505003041 | 59 | 240 | 8.0 | 19.0 | 0.00 | 0.04 | 0.04 | 28 | 1011.2 |
| 20260505002513 | 59 | 212 | 11.0 | 19.0 | 0.00 | 0.04 | 0.04 | 27 | 1011.3 |
| 20260505002012 | 59 | 212 | 11.0 | 23.0 | 0.00 | 0.04 | 0.04 | 26 | 1011.3 |
| 20260505001534 | 60 | 203 | 11.0 | 23.0 | 0.00 | 0.04 | 0.04 | 28 | 1011.2 |
| 20260505001013 | 60 | 246 | 12.0 | 17.0 | 0.00 | 0.04 | 0.04 | 27 | 1011.3 |
| 20260505000513 | 60 | 234 | 11.0 | 17.0 | 0.00 | 0.04 | 0.04 | 29 | 1011.3 |
| 20260505000042 | 60 | 237 | 10.0 | 15.0 | 0.00 | 0.04 | 0.04 | 27 | 1011.4 |
| 20260504235514 | 60 | 220 | 7.0 | 15.0 | 0.00 | 0.04 | 0.04 | 29 | 1011.4 |
| 20260504235014 | 60 | 207 | 10.0 | 16.0 | 0.00 | 0.04 | 0.04 | 30 | 1011.3 |
| 20260504234533 | 60 | 264 | 11.0 | 16.0 | 0.00 | 0.04 | 0.04 | 30 | 1011.3 |
| 20260504234014 | 60 | 232 | 13.0 | 17.0 | 0.00 | 0.04 | 0.04 | 30 | 1011.4 |
| 20260504233513 | 60 | 219 | 11.0 | 17.0 | 0.00 | 0.04 | 0.04 | 31 | 1011.3 |
| 20260504233032 | 60 | 243 | 11.0 | 20.0 | 0.00 | 0.04 | 0.04 | 31 | 1011.4 |
| 20260504232515 | 61 | 214 | 12.0 | 20.0 | 0.00 | 0.04 | 0.04 | 29 | 1011.5 |
| 20260504232017 | 61 | 207 | 11.0 | 20.0 | 0.00 | 0.04 | 0.04 | 27 | 1011.3 |
| 20260504231532 | 61 | 215 | 13.0 | 20.0 | 0.00 | 0.04 | 0.04 | 27 | 1011.3 |
| 20260504231015 | 62 | 221 | 11.0 | 21.0 | 0.00 | 0.04 | 0.04 | 28 | 1011.5 |
| 20260504230513 | 62 | 222 | 14.0 | 21.0 | 0.00 | 0.04 | 0.04 | 27 | 1011.5 |
| 20260504230041 | 61 | 245 | 13.0 | 19.0 | 0.00 | 0.04 | 0.04 | 28 | 1011.4 |
| 20260504225514 | 61 | 251 | 13.0 | 19.0 | 0.00 | 0.04 | 0.04 | 28 | 1011.4 |
| 20260504225015 | 61 | 233 | 14.0 | 19.0 | 0.00 | 0.04 | 0.04 | 27 | 1011.4 |
| 20260504224533 | 61 | 237 | 15.0 | 19.0 | 0.00 | 0.04 | 0.04 | 27 | 1011.3 |
| 20260504224013 | 61 | 257 | 11.0 | 19.0 | 0.00 | 0.04 | 0.04 | 28 | 1011.3 |
| 20260504223514 | 61 | 166 | 13.0 | 19.0 | 0.00 | 0.04 | 0.04 | 28 | 1011.5 |
| 20260504223032 | 61 | 224 | 11.0 | 22.0 | 0.00 | 0.04 | 0.04 | 28 | 1011.3 |
| 20260504222512 | 61 | 227 | 14.0 | 22.0 | 0.00 | 0.04 | 0.04 | 29 | 1011.4 |
| 20260504222018 | 61 | 226 | 13.0 | 22.0 | 0.00 | 0.04 | 0.04 | 27 | 1011.3 |
| 20260504221545 | 61 | 184 | 9.0 | 23.0 | 0.00 | 0.04 | 0.04 | 28 | 1011.3 |
| 20260504221017 | 62 | 191 | 12.0 | 23.0 | 0.00 | 0.04 | 0.04 | 31 | 1011.5 |
| 20260504220515 | 61 | 248 | 17.0 | 23.0 | 0.00 | 0.04 | 0.04 | 32 | 1011.6 |
| 20260504220035 | 62 | 206 | 13.0 | 21.0 | 0.00 | 0.04 | 0.04 | 32 | 1011.6 |
| 20260504215514 | 62 | 222 | 13.0 | 19.0 | 0.00 | 0.04 | 0.04 | 31 | 1011.6 |
| 20260504215014 | 61 | 194 | 12.0 | 21.0 | 0.00 | 0.04 | 0.04 | 34 | 1011.7 |
| 20260504214531 | 61 | 239 | 12.0 | 21.0 | 0.00 | 0.04 | 0.04 | 30 | 1011.8 |
| 20260504214013 | 62 | 231 | 12.0 | 21.0 | 0.00 | 0.04 | 0.04 | 33 | 1011.9 |
| 20260504213513 | 61 | 230 | 12.0 | 18.0 | 0.00 | 0.04 | 0.04 | 35 | 1011.9 |
| 20260504213042 | 61 | 227 | 14.0 | 18.0 | 0.00 | 0.04 | 0.04 | 35 | 1012.0 |
| 20260504212516 | 61 | 208 | 8.0 | 20.0 | 0.00 | 0.04 | 0.04 | 36 | 1012.1 |
| 20260504212014 | 61 | 226 | 13.0 | 20.0 | 0.00 | 0.04 | 0.04 | 36 | 1012.4 |
| 20260504211536 | 61 | 236 | 11.0 | 18.0 | 0.00 | 0.04 | 0.04 | 37 | 1012.3 |
| 20260504211014 | 61 | 245 | 12.0 | 19.0 | 0.00 | 0.04 | 0.04 | 39 | 1012.2 |
| 20260504210515 | 59 | 240 | 9.0 | 19.0 | 0.00 | 0.04 | 0.04 | 42 | 1012.4 |
| 20260504210038 | 58 | 257 | 6.0 | 12.0 | 0.00 | 0.04 | 0.04 | 46 | 1012.6 |
| 20260504205514 | 58 | 301 | 4.0 | 12.0 | 0.00 | 0.04 | 0.04 | 47 | 1012.5 |
| 20260504205013 | 58 | 226 | 4.0 | 12.0 | 0.00 | 0.04 | 0.04 | 49 | 1012.8 |